Zagreb, Croatia

4:07 AM CET on December 10, 2016 (GMT +0100)
Pleso

Weather History for LDZA - December, 2012

Change the Weather History Date:

Tuesday, December 4, 2012

  Actual Average Record
Temperature  
Mean Temperature 30 °F -  
Max Temperature 36 °F - - ()
Min Temperature 25 °F - - ()
Degree Days  
Heating Degree Days 34    
Moisture  
Dew Point 30 °F    
Average Humidity 92    
Maximum Humidity 100    
Minimum Humidity 79    
Precipitation  
Precipitation 0.59 in - - ()
Sea Level Pressure  
Sea Level Pressure 29.69 in    
Wind  
Wind Speed 2 mph ()    
Max Wind Speed 12 mph    
Max Gust Speed -    
Visibility 6.1 miles    
Events Fog , Rain , Snow    
T = Trace of Precipitation, MM = Missing Value Source: Averaged Metar Reports

Daily Weather History Graph

Daily Weather History Graph

Search for Another Location

Airport or City:

Trip Planner

Search our weather history database for the weather conditions in past years. The results will help you decide how hot, cold, wet, or windy it might be!

Date:

Astronomy

Dec. 04, 2012 Rise Set
Actual Time 7:19 AM CET 4:12 PM CET
Civil Twilight 6:46 AM CET 4:46 PM CET
Nautical Twilight 6:08 AM CET 5:23 PM CET
Astronomical Twilight 5:32 AM CET 5:59 PM CET
Moon 9:52 PM CET (12/4) 10:55 AM CET (12/4)
Length of Visible Light 10h 00m
Length of Day
8h 52m
Waning Gibbous, 72% of the Moon is Illuminated
Dec 4
Waning Gibbous
Dec 6
Last Quarter
Dec 13
New
Dec 20
First Quarter
Dec 28
Full

Hourly Weather History & Observations

Time (CET) Temp. Windchill Dew Point Humidity Pressure Visibility Wind Dir Wind Speed Gust Speed Precip Events Conditions
12:00 AM 28.4 °F - 28.4 °F 100% 29.92 in - Calm Calm - N/A   Clear
12:30 AM 30.2 °F - 28.4 °F 93% 29.92 in - West 2.3 mph - N/A   Clear
1:00 AM 30 °F - 29 °F 92% 29.93 in 7 mi Calm Calm - -   Mostly Cloudy
1:00 AM 30.2 °F - 28.4 °F 93% 29.89 in - Calm Calm - N/A   Clear
1:30 AM 30.2 °F - 28.4 °F 93% 29.89 in - Variable 2.3 mph - N/A   Clear
2:00 AM 30.2 °F - 28.4 °F 93% 29.86 in - South 1.2 mph - N/A   Clear
2:30 AM 28.4 °F - 26.6 °F 93% 29.86 in 6.2 mi ESE 2.3 mph - N/A Fog Shallow Fog
3:00 AM 28.4 °F - 26.6 °F 93% 29.86 in 6.2 mi NNW 1.2 mph - N/A Fog Shallow Fog
3:30 AM 26.6 °F - 26.6 °F 100% 29.83 in 6.2 mi Calm Calm - N/A Fog Shallow Fog
4:00 AM 27 °F - 26 °F 94% 29.85 in 7 mi SE 2.2 mph - - Fog Patches of Fog
4:00 AM 26.6 °F - 26.6 °F 100% 29.83 in 6.2 mi SE 1.2 mph - N/A Fog Shallow Fog
4:30 AM 26.6 °F 22.6 °F 26.6 °F 100% 29.80 in - SE 3.5 mph - N/A   Clear
5:00 AM 26.6 °F - 24.8 °F 93% 29.80 in - Variable 1.2 mph - N/A   Clear
5:30 AM 24.8 °F - 24.8 °F 100% 29.77 in - Variable 1.2 mph - N/A   Clear
6:00 AM 24.8 °F - 24.8 °F 100% 29.77 in - East 1.2 mph - N/A   Clear
6:30 AM 26.6 °F - 24.8 °F 93% 29.77 in - Calm Calm - N/A   Clear
7:00 AM 27 °F - 26 °F 94% 29.80 in 16 mi Calm Calm - -   Mostly Cloudy
7:00 AM 26.6 °F - 26.6 °F 100% 29.77 in - Calm Calm - N/A   Clear
7:30 AM 28.4 °F - 26.6 °F 93% 29.74 in - Calm Calm - N/A   Clear
8:00 AM 28.4 °F - 28.4 °F 100% 29.74 in - Variable 2.3 mph - N/A   Clear
8:30 AM 28.4 °F - 28.4 °F 100% 29.74 in - Variable 2.3 mph - N/A   Clear
9:00 AM 30.2 °F - 28.4 °F 93% 29.74 in - Variable 1.2 mph - N/A   Clear
9:30 AM 30.2 °F - 28.4 °F 93% 29.74 in - Variable 1.2 mph - N/A   Clear
10:00 AM 32 °F - 30 °F 89% 29.75 in 12 mi ESE 2.2 mph - -   Partly Cloudy
10:00 AM 32.0 °F 28.7 °F 30.2 °F 93% 29.71 in - ESE 3.5 mph - N/A   Clear
10:30 AM 32.0 °F - 30.2 °F 93% 29.71 in - Variable 2.3 mph - N/A   Clear
11:00 AM 33.8 °F - 30.2 °F 87% 29.68 in 6.2 mi Variable 2.3 mph - N/A   Partly Cloudy
11:30 AM 33.8 °F - 30.2 °F 87% 29.68 in 6.2 mi Variable 2.3 mph - N/A   Mostly Cloudy
12:00 PM 35.6 °F 32.8 °F 32.0 °F 87% 29.65 in 6.2 mi East 3.5 mph - N/A   Scattered Clouds
12:30 PM 35.6 °F 32.8 °F 30.2 °F 81% 29.65 in 6.2 mi East 3.5 mph - N/A   Partly Cloudy
1:00 PM 35 °F - 31 °F 79% 29.65 in 9 mi East 4.5 mph - -   Partly Cloudy
1:00 PM 35.6 °F 31.7 °F 30.2 °F 81% 29.62 in 6.2 mi East 4.6 mph - N/A   Scattered Clouds
1:30 PM 35.6 °F 32.8 °F 32.0 °F 87% 29.59 in 6.2 mi East 3.5 mph - N/A   Scattered Clouds
2:00 PM 35.6 °F 31.7 °F 32.0 °F 87% 29.59 in 6.2 mi ENE 4.6 mph - N/A   Partly Cloudy
2:30 PM 35.6 °F 30.7 °F 32.0 °F 87% 29.56 in 6.2 mi ENE 5.8 mph - N/A   Partly Cloudy
3:00 PM 35.6 °F 30.7 °F 32.0 °F 87% 29.56 in 6.2 mi ENE 5.8 mph - N/A   Overcast
3:30 PM 35.6 °F 30.7 °F 32.0 °F 87% 29.56 in 6.2 mi ENE 5.8 mph - N/A   Overcast
4:00 PM 36 °F - 32 °F 79% 29.59 in 9 mi ENE 4.5 mph - -   Overcast
4:00 PM 35.6 °F 31.7 °F 32.0 °F 87% 29.56 in 6.2 mi ENE 4.6 mph - N/A   Mostly Cloudy
4:30 PM 35.6 °F 29.9 °F 32.0 °F 87% 29.56 in 6.2 mi NE 6.9 mph - N/A   Overcast
5:00 PM 35.6 °F 30.7 °F 32.0 °F 87% 29.56 in 6.2 mi ENE 5.8 mph - N/A   Overcast
5:30 PM 35.6 °F 29.2 °F 32.0 °F 87% 29.56 in 6.2 mi NNE 8.1 mph - N/A Rain Light Rain
6:00 PM 35.6 °F 28.0 °F 32.0 °F 87% 29.56 in 6.2 mi NNE 10.4 mph - N/A Rain Light Rain
6:30 PM 35.6 °F 28.0 °F 32.0 °F 87% 29.56 in 6.2 mi NNE 10.4 mph - N/A Rain Light Rain
7:00 PM 33.8 °F 25.3 °F 32.0 °F 93% 29.53 in 5.0 mi NNE 11.5 mph - N/A Rain , Snow Light Rain
7:30 PM 33.8 °F 26.4 °F 32.0 °F 93% 29.53 in 3.1 mi NNE 9.2 mph - N/A Rain , Snow Light Rain
8:00 PM 33.8 °F 25.3 °F 32.0 °F 93% 29.56 in 3.7 mi NE 11.5 mph - N/A Rain , Snow Light Rain
8:30 PM 33.8 °F 27.0 °F 32.0 °F 93% 29.56 in 3.7 mi NE 8.1 mph - N/A Snow Snow
9:00 PM 32.0 °F 28.7 °F 32.0 °F 100% 29.56 in 3.7 mi NNE 3.5 mph - N/A Snow Snow
9:30 PM 32.0 °F - 32.0 °F 100% 29.53 in 3.7 mi Variable 1.2 mph - N/A Rain , Snow Light Rain
10:00 PM 32 °F - 31 °F 96% 29.55 in 4 mi Calm Calm - - Rain Light Rain
10:00 PM 32.0 °F - 32.0 °F 100% 29.53 in 3.7 mi Variable 1.2 mph - N/A Rain Light Rain
10:30 PM 32.0 °F 28.7 °F 32.0 °F 100% 29.53 in 3.7 mi West 3.5 mph - N/A Rain Light Rain
11:00 PM 32.0 °F 26.4 °F 32.0 °F 100% 29.56 in 3.7 mi West 5.8 mph - N/A Rain , Snow Light Rain
11:30 PM 32.0 °F 25.6 °F 32.0 °F 100% 29.53 in 3.7 mi West 6.9 mph - N/A Rain , Snow Light Rain